• în România
  • Lista ţărilor
  • Pe 7 zile
  • Temperatura apei
  • Hartă satelitară
  • Meteo pe hartă
  • Widget-uri
  • user-avatar
    Intrare

    Meteo pe oră la Pontypool

    Astăzi, 20 Mai, Duminică

    Timp Temperatura Precipitaţii Vânt Presiune Umiditate
    00:00 +11°C° 0 mm 1 m/s 752 mmHg 87%
    01:00 +10°C° 0 mm 1 m/s 751 mmHg 87%
    02:00 +10°C° 0 mm 1 m/s 751 mmHg 87%
    03:00 +10°C° 0 mm 1 m/s 751 mmHg 87%
    04:00 +10°C° 0 mm 1 m/s 751 mmHg 87%
    05:00 +11°C° 0 mm 1 m/s 751 mmHg 87%
    06:00 +11°C° 0 mm 1 m/s 751 mmHg 86%
    07:00 +13°C° 0 mm 2 m/s 751 mmHg 80%
    08:00 +15°C° 0 mm 2 m/s 751 mmHg 74%
    09:00 +16°C° 0 mm 2 m/s 751 mmHg 69%
    10:00 +17°C° 0 mm 2 m/s 751 mmHg 67%
    11:00 +18°C° 0 mm 2 m/s 751 mmHg 65%
    12:00 +19°C° 0 mm 2 m/s 751 mmHg 64%
    13:00 +19°C° 0 mm 2 m/s 751 mmHg 64%
    14:00 +19°C° 0 mm 2 m/s 751 mmHg 64%
    15:00 +19°C° 0 mm 2 m/s 751 mmHg 65%
    16:00 +19°C° 0 mm 2 m/s 750 mmHg 68%
    17:00 +20°C° 0 mm 1 m/s 750 mmHg 71%
    18:00 +19°C° 0 mm 1 m/s 750 mmHg 74%
    19:00 +18°C° 0 mm 1 m/s 750 mmHg 78%
    20:00 +15°C° 0 mm 1 m/s 750 mmHg 82%
    21:00 +13°C° 0 mm 1 m/s 750 mmHg 86%
    22:00 +13°C° 0 mm 1 m/s 750 mmHg 87%
    23:00 +12°C° 0 mm 1 m/s 750 mmHg 89%

    Mâine, 21 Mai, Luni

    Timp Temperatura Precipitaţii Vânt Presiune Umiditate
    00:00 +11°C° 0 mm 1 m/s 749 mmHg 91%
    01:00 +11°C° 0 mm 1 m/s 749 mmHg 91%
    02:00 +10°C° 0 mm 1 m/s 749 mmHg 92%
    03:00 +10°C° 0 mm 1 m/s 748 mmHg 93%
    04:00 +10°C° 0 mm 1 m/s 748 mmHg 92%
    05:00 +11°C° 0 mm 1 m/s 748 mmHg 91%
    06:00 +10°C° 0 mm 2 m/s 748 mmHg 90%
    07:00 +13°C° 0 mm 2 m/s 748 mmHg 84%
    08:00 +15°C° 0 mm 2 m/s 748 mmHg 78%
    09:00 +16°C° 0 mm 2 m/s 748 mmHg 71%
    10:00 +18°C° 0 mm 2 m/s 748 mmHg 69%
    11:00 +19°C° 0 mm 2 m/s 748 mmHg 66%
    12:00 +20°C° 0 mm 2 m/s 747 mmHg 64%
    13:00 +20°C° 0,2 mm 2 m/s 747 mmHg 65%
    14:00 +20°C° 0,2 mm 2 m/s 747 mmHg 66%
    15:00 +21°C° 0,2 mm 2 m/s 747 mmHg 67%
    16:00 +20°C° 0,4 mm 2 m/s 747 mmHg 71%
    17:00 +20°C° 0,4 mm 2 m/s 747 mmHg 75%
    18:00 +19°C° 0,4 mm 2 m/s 747 mmHg 79%
    19:00 +18°C° 0,4 mm 2 m/s 747 mmHg 83%
    20:00 +16°C° 0,4 mm 2 m/s 747 mmHg 86%
    21:00 +14°C° 0,4 mm 2 m/s 747 mmHg 89%
    22:00 +13°C° 0 mm 2 m/s 747 mmHg 90%
    23:00 +12°C° 0 mm 3 m/s 747 mmHg 91%

    Poimâine, 22 Mai, Marţi

    Timp Temperatura Precipitaţii Vânt Presiune Umiditate
    00:00 +11°C° 0 mm 3 m/s 747 mmHg 92%
    01:00 +10°C° 0 mm 3 m/s 747 mmHg 92%
    02:00 +10°C° 0 mm 3 m/s 747 mmHg 93%
    03:00 +9°C° 0 mm 3 m/s 747 mmHg 94%
    04:00 +10°C° 0 mm 3 m/s 747 mmHg 94%
    05:00 +10°C° 0 mm 3 m/s 747 mmHg 93%
    06:00 +11°C° 0 mm 3 m/s 747 mmHg 93%
    07:00 +12°C° 0 mm 3 m/s 748 mmHg 89%
    08:00 +14°C° 0 mm 3 m/s 748 mmHg 85%
    09:00 +16°C° 0 mm 3 m/s 748 mmHg 81%
    10:00 +17°C° 0 mm 3 m/s 748 mmHg 78%
    11:00 +18°C° 0 mm 3 m/s 748 mmHg 75%
    12:00 +19°C° 0 mm 3 m/s 749 mmHg 72%
    13:00 +19°C° 0 mm 3 m/s 749 mmHg 72%
    14:00 +19°C° 0 mm 3 m/s 749 mmHg 72%
    15:00 +19°C° 0 mm 3 m/s 749 mmHg 72%
    16:00 +19°C° 0 mm 3 m/s 749 mmHg 75%
    17:00 +19°C° 0 mm 3 m/s 749 mmHg 78%
    18:00 +18°C° 0 mm 3 m/s 749 mmHg 81%
    19:00 +17°C° 0 mm 3 m/s 749 mmHg 85%
    20:00 +16°C° 0 mm 3 m/s 750 mmHg 89%
    21:00 +13°C° 0 mm 3 m/s 750 mmHg 92%
    22:00 +13°C° 0 mm 3 m/s 750 mmHg 93%
    23:00 +12°C° 0 mm 3 m/s 750 mmHg 94%

    23 Mai, Miercuri

    Timp Temperatura Precipitaţii Vânt Presiune Umiditate
    00:00 +11°C° 0 mm 3 m/s 751 mmHg 95%
    01:00 +11°C° 0 mm 3 m/s 751 mmHg 95%
    02:00 +10°C° 0 mm 3 m/s 751 mmHg 95%
    03:00 +9°C° 0 mm 3 m/s 751 mmHg 95%
    04:00 +10°C° 0 mm 4 m/s 751 mmHg 94%
    05:00 +10°C° 0 mm 4 m/s 751 mmHg 93%
    06:00 +9°C° 0 mm 5 m/s 751 mmHg 92%
    07:00 +12°C° 0 mm 5 m/s 751 mmHg 88%
    08:00 +13°C° 0 mm 5 m/s 752 mmHg 83%
    09:00 +15°C° 0 mm 5 m/s 752 mmHg 79%
    10:00 +16°C° 0 mm 5 m/s 752 mmHg 77%
    11:00 +19°C° 0 mm 5 m/s 752 mmHg 75%
    12:00 +20°C° 0 mm 5 m/s 752 mmHg 73%
    13:00 +20°C° 0,3 mm 5 m/s 752 mmHg 73%
    14:00 +20°C° 0,3 mm 5 m/s 752 mmHg 74%
    15:00 +21°C° 0,3 mm 5 m/s 751 mmHg 74%
    16:00 +20°C° 0,3 mm 5 m/s 751 mmHg 77%
    17:00 +20°C° 0,3 mm 5 m/s 751 mmHg 79%
    18:00 +19°C° 0,3 mm 5 m/s 751 mmHg 82%
    19:00 +17°C° 0,1 mm 5 m/s 751 mmHg 84%
    20:00 +15°C° 0,1 mm 5 m/s 751 mmHg 87%
    21:00 +14°C° 0,1 mm 5 m/s 751 mmHg 89%
    22:00 +12°C° 0 mm 5 m/s 751 mmHg 90%
    23:00 +10°C° 0 mm 5 m/s 751 mmHg 90%

    24 Mai, Joi

    Timp Temperatura Precipitaţii Vânt Presiune Umiditate
    00:00 +9°C° 0 mm 5 m/s 751 mmHg 91%
    01:00 +9°C° 0 mm 5 m/s 751 mmHg 92%
    02:00 +9°C° 0 mm 5 m/s 751 mmHg 94%
    03:00 +8°C° 0 mm 5 m/s 751 mmHg 95%
    04:00 +9°C° 0 mm 5 m/s 751 mmHg 94%
    05:00 +9°C° 0 mm 5 m/s 750 mmHg 94%
    06:00 +10°C° 0 mm 5 m/s 750 mmHg 93%
    07:00 +12°C° 0 mm 5 m/s 750 mmHg 91%
    08:00 +13°C° 0 mm 6 m/s 751 mmHg 89%
    09:00 +14°C° 0 mm 6 m/s 751 mmHg 87%
    10:00 +15°C° 0 mm 6 m/s 751 mmHg 85%
    11:00 +16°C° 0 mm 6 m/s 750 mmHg 82%
    12:00 +17°C° 0 mm 6 m/s 750 mmHg 79%
    13:00 +17°C° 0,1 mm 5 m/s 750 mmHg 80%
    14:00 +17°C° 0,1 mm 5 m/s 750 mmHg 80%
    15:00 +17°C° 0,1 mm 5 m/s 750 mmHg 81%
    16:00 +19°C° 0,1 mm 5 m/s 750 mmHg 82%
    17:00 +19°C° 0,1 mm 5 m/s 750 mmHg 82%
    18:00 +19°C° 0,1 mm 5 m/s 750 mmHg 83%
    19:00 +17°C° 0 mm 5 m/s 750 mmHg 86%
    20:00 +16°C° 0 mm 5 m/s 750 mmHg 89%
    21:00 +15°C° 0 mm 5 m/s 750 mmHg 92%
    22:00 +15°C° 0 mm 5 m/s 750 mmHg 93%
    23:00 +14°C° 0 mm 5 m/s 750 mmHg 94%

    25 Mai, Vineri

    Timp Temperatura Precipitaţii Vânt Presiune Umiditate
    00:00 +14°C° 0 mm 5 m/s 750 mmHg 95%
    01:00 +13°C° 0 mm 5 m/s 750 mmHg 95%
    02:00 +12°C° 0 mm 5 m/s 750 mmHg 95%
    03:00 +12°C° 0 mm 5 m/s 749 mmHg 95%
    04:00 +12°C° 0 mm 5 m/s 749 mmHg 94%
    05:00 +12°C° 0 mm 5 m/s 750 mmHg 92%
    06:00 +13°C° 0 mm 5 m/s 750 mmHg 91%
    07:00 +14°C° 0 mm 6 m/s 750 mmHg 88%
    08:00 +16°C° 0 mm 6 m/s 750 mmHg 84%
    09:00 +17°C° 0 mm 7 m/s 750 mmHg 81%
    10:00 +18°C° 0 mm 7 m/s 750 mmHg 78%
    11:00 +20°C° 0 mm 7 m/s 750 mmHg 75%
    12:00 +21°C° 0 mm 7 m/s 750 mmHg 73%
    13:00 +22°C° 0 mm 7 m/s 750 mmHg 72%
    14:00 +22°C° 0 mm 7 m/s 750 mmHg 71%
    15:00 +22°C° 0 mm 7 m/s 750 mmHg 71%
    16:00 +21°C° 0 mm 7 m/s 750 mmHg 73%
    17:00 +20°C° 0 mm 7 m/s 751 mmHg 76%
    18:00 +20°C° 0 mm 6 m/s 751 mmHg 78%
    19:00 +17°C° 0 mm 6 m/s 751 mmHg 79%
    20:00 +15°C° 0 mm 6 m/s 752 mmHg 80%
    21:00 +14°C° 0 mm 6 m/s 752 mmHg 81%
    22:00 +11°C° 0 mm 6 m/s 752 mmHg 82%
    23:00 +10°C° 0 mm 6 m/s 752 mmHg 83%
    Arată mai mult